EN

Hourly Weather La Campa

Today, 1 August, Sunday

Time Temperature Precipitation Wind Pressure Humidity
00:00 +19°C° 0.2 mm 1 mps 648 mmHg 98%
01:00 +19°C° 0 mm 1 mps 648 mmHg 98%
02:00 +19°C° 0 mm 1 mps 648 mmHg 98%
03:00 +19°C° 0 mm 1 mps 648 mmHg 98%
04:00 +19°C° 0 mm 1 mps 648 mmHg 98%
05:00 +18°C° 0 mm 1 mps 648 mmHg 98%
06:00 +18°C° 0 mm 1 mps 648 mmHg 97%
07:00 +20°C° 0 mm 1 mps 649 mmHg 90%
08:00 +22°C° 0 mm 1 mps 650 mmHg 82%
09:00 +23°C° 0 mm 1 mps 650 mmHg 74%
10:00 +25°C° 0 mm 1 mps 650 mmHg 65%
11:00 +27°C° 0 mm 2 mps 650 mmHg 55%
12:00 +28°C° 0 mm 2 mps 651 mmHg 45%
13:00 +28°C° 0 mm 2 mps 650 mmHg 47%
14:00 +28°C° 0 mm 2 mps 650 mmHg 50%
15:00 +28°C° 0 mm 2 mps 649 mmHg 52%
16:00 +25°C° 0.5 mm 2 mps 649 mmHg 65%
17:00 +23°C° 0.5 mm 1 mps 649 mmHg 78%
18:00 +21°C° 0.5 mm 1 mps 648 mmHg 91%
19:00 +20°C° 0.3 mm 1 mps 648 mmHg 92%
20:00 +19°C° 0.3 mm 1 mps 649 mmHg 94%
21:00 +18°C° 0.3 mm 1 mps 649 mmHg 96%
22:00 +18°C° 0.1 mm 1 mps 649 mmHg 96%
23:00 +18°C° 0.1 mm 1 mps 649 mmHg 96%

Tomorrow, 2 August, Monday

Time Temperature Precipitation Wind Pressure Humidity
00:00 +18°C° 0.1 mm 1 mps 648 mmHg 96%
01:00 +18°C° 0 mm 1 mps 648 mmHg 96%
02:00 +18°C° 0 mm 1 mps 648 mmHg 96%
03:00 +18°C° 0 mm 1 mps 647 mmHg 96%
04:00 +18°C° 0 mm 1 mps 648 mmHg 96%
05:00 +18°C° 0 mm 1 mps 648 mmHg 96%
06:00 +18°C° 0 mm 1 mps 648 mmHg 96%
07:00 +19°C° 0 mm 1 mps 649 mmHg 90%
08:00 +21°C° 0 mm 1 mps 649 mmHg 84%
09:00 +22°C° 0 mm 1 mps 650 mmHg 78%
10:00 +24°C° 0 mm 1 mps 650 mmHg 69%
11:00 +26°C° 0 mm 2 mps 650 mmHg 59%
12:00 +27°C° 0 mm 2 mps 650 mmHg 50%
13:00 +27°C° 0 mm 2 mps 649 mmHg 53%
14:00 +26°C° 0 mm 2 mps 649 mmHg 57%
15:00 +26°C° 0 mm 2 mps 648 mmHg 61%
16:00 +24°C° 0.1 mm 1 mps 648 mmHg 69%
17:00 +23°C° 0.1 mm 1 mps 648 mmHg 77%
18:00 +21°C° 0.1 mm 1 mps 648 mmHg 86%
19:00 +20°C° 0.1 mm 1 mps 648 mmHg 89%
20:00 +19°C° 0.1 mm 1 mps 648 mmHg 93%
21:00 +18°C° 0.1 mm 1 mps 648 mmHg 96%
22:00 +18°C° 0 mm 1 mps 648 mmHg 96%
23:00 +18°C° 0 mm 1 mps 648 mmHg 96%

Day after tomorrow, 3 August, Tuesday

Time Temperature Precipitation Wind Pressure Humidity
00:00 +18°C° 0 mm 1 mps 648 mmHg 96%
01:00 +18°C° 0 mm 1 mps 647 mmHg 96%
02:00 +18°C° 0 mm 1 mps 647 mmHg 96%
03:00 +18°C° 0 mm 1 mps 647 mmHg 96%
04:00 +18°C° 0 mm 1 mps 647 mmHg 95%
05:00 +18°C° 0 mm 1 mps 647 mmHg 95%
06:00 +18°C° 0 mm 1 mps 647 mmHg 95%
07:00 +20°C° 0 mm 1 mps 648 mmHg 85%
08:00 +22°C° 0 mm 1 mps 649 mmHg 76%
09:00 +25°C° 0 mm 1 mps 649 mmHg 67%
10:00 +25°C° 0.6 mm 1 mps 649 mmHg 70%
11:00 +25°C° 0.6 mm 1 mps 649 mmHg 72%
12:00 +25°C° 0.6 mm 1 mps 649 mmHg 74%
13:00 +25°C° 2.1 mm 1 mps 648 mmHg 77%
14:00 +24°C° 2.1 mm 1 mps 648 mmHg 80%
15:00 +24°C° 2.1 mm 1 mps 647 mmHg 83%
16:00 +23°C° 2 mm 1 mps 647 mmHg 87%
17:00 +20°C° 2 mm 0 mps 647 mmHg 90%
18:00 +18°C° 2 mm 0 mps 647 mmHg 94%
19:00 +18°C° 2.4 mm 0 mps 647 mmHg 95%
20:00 +19°C° 2.4 mm 1 mps 647 mmHg 96%
21:00 +19°C° 2.4 mm 1 mps 648 mmHg 98%
22:00 +18°C° 1.2 mm 1 mps 648 mmHg 98%
23:00 +18°C° 1.2 mm 1 mps 648 mmHg 98%

4 August, Wednesday

Time Temperature Precipitation Wind Pressure Humidity
00:00 +16°C° 1.2 mm 0 mps 647 mmHg 97%
01:00 +16°C° 0 mm 0 mps 647 mmHg 97%
02:00 +16°C° 0 mm 1 mps 647 mmHg 96%
03:00 +16°C° 0 mm 1 mps 646 mmHg 96%
04:00 +16°C° 0 mm 1 mps 647 mmHg 96%
05:00 +15°C° 0 mm 1 mps 647 mmHg 95%
06:00 +15°C° 0 mm 1 mps 647 mmHg 95%
07:00 +19°C° 0 mm 1 mps 648 mmHg 85%
08:00 +19°C° 0 mm 0 mps 648 mmHg 74%
09:00 +22°C° 0 mm 0 mps 649 mmHg 64%
10:00 +25°C° 0.1 mm 1 mps 649 mmHg 64%
11:00 +25°C° 0.1 mm 1 mps 649 mmHg 63%
12:00 +26°C° 0.1 mm 1 mps 649 mmHg 63%
13:00 +24°C° 1.6 mm 1 mps 648 mmHg 73%
14:00 +23°C° 1.6 mm 1 mps 648 mmHg 82%
15:00 +22°C° 1.6 mm 1 mps 647 mmHg 92%
16:00 +19°C° 4 mm 0 mps 647 mmHg 94%
17:00 +18°C° 4 mm 0 mps 647 mmHg 95%
18:00 +17°C° 4 mm 0 mps 647 mmHg 97%
19:00 +17°C° 2.7 mm 0 mps 648 mmHg 97%
20:00 +17°C° 2.7 mm 0 mps 648 mmHg 98%
21:00 +16°C° 2.7 mm 0 mps 648 mmHg 98%
22:00 +16°C° 0.4 mm 0 mps 648 mmHg 98%
23:00 +16°C° 0.4 mm 0 mps 648 mmHg 98%

5 August, Thursday

Time Temperature Precipitation Wind Pressure Humidity
00:00 +16°C° 0.4 mm 0 mps 648 mmHg 98%
01:00 +16°C° 0 mm 0 mps 648 mmHg 98%
02:00 +16°C° 0 mm 0 mps 648 mmHg 98%
03:00 +15°C° 0 mm 0 mps 647 mmHg 98%
04:00 +15°C° 0 mm 0 mps 647 mmHg 97%
05:00 +15°C° 0 mm 0 mps 648 mmHg 97%
06:00 +16°C° 0 mm 1 mps 648 mmHg 97%
07:00 +18°C° 0.3 mm 1 mps 648 mmHg 95%
08:00 +19°C° 0.3 mm 1 mps 649 mmHg 93%
09:00 +20°C° 0.3 mm 1 mps 649 mmHg 91%
10:00 +21°C° 0.3 mm 1 mps 649 mmHg 90%
11:00 +21°C° 0.3 mm 1 mps 649 mmHg 88%
12:00 +21°C° 0.3 mm 1 mps 649 mmHg 86%
13:00 +21°C° 0.1 mm 1 mps 649 mmHg 86%
14:00 +19°C° 0.1 mm 0 mps 649 mmHg 85%
15:00 +19°C° 0.1 mm 0 mps 648 mmHg 84%
16:00 +18°C° 0.1 mm 0 mps 648 mmHg 86%
17:00 +18°C° 0.1 mm 0 mps 648 mmHg 88%
18:00 +17°C° 0.1 mm 0 mps 648 mmHg 90%
19:00 +17°C° 0.2 mm 0 mps 649 mmHg 91%
20:00 +17°C° 0.2 mm 0 mps 649 mmHg 92%
21:00 +18°C° 0.2 mm 1 mps 649 mmHg 92%
22:00 +18°C° 0.1 mm 1 mps 649 mmHg 92%
23:00 +18°C° 0.1 mm 1 mps 649 mmHg 92%

6 August, Friday

Time Temperature Precipitation Wind Pressure Humidity
00:00 +18°C° 0.1 mm 1 mps 649 mmHg 92%
01:00 +18°C° 0.1 mm 1 mps 648 mmHg 93%
02:00 +18°C° 0.1 mm 1 mps 648 mmHg 93%
03:00 +16°C° 0.1 mm 0 mps 648 mmHg 93%
04:00 +16°C° 0.2 mm 0 mps 648 mmHg 93%
05:00 +16°C° 0.2 mm 0 mps 648 mmHg 94%
06:00 +16°C° 0.2 mm 0 mps 649 mmHg 95%
07:00 +17°C° 0.2 mm 0 mps 649 mmHg 93%
08:00 +18°C° 0.2 mm 0 mps 649 mmHg 90%
09:00 +19°C° 0.2 mm 0 mps 650 mmHg 88%
10:00 +19°C° 0.2 mm 0 mps 650 mmHg 87%
11:00 +19°C° 0.2 mm 0 mps 649 mmHg 86%
12:00 +20°C° 0.2 mm 0 mps 649 mmHg 85%
13:00 +20°C° 0.7 mm 0 mps 649 mmHg 83%
14:00 +21°C° 0.7 mm 0 mps 649 mmHg 82%
15:00 +21°C° 0.7 mm 0 mps 648 mmHg 81%
16:00 +20°C° 0.9 mm 0 mps 648 mmHg 85%
17:00 +19°C° 0.9 mm 0 mps 648 mmHg 89%
18:00 +18°C° 0.9 mm 0 mps 648 mmHg 93%
19:00 +17°C° 0.7 mm 0 mps 648 mmHg 94%
20:00 +19°C° 0.7 mm 1 mps 648 mmHg 95%
21:00 +18°C° 0.7 mm 1 mps 648 mmHg 96%
22:00 +18°C° 3.1 mm 1 mps 649 mmHg 97%
23:00 +16°C° 3.1 mm 0 mps 649 mmHg 98%
Show more